• In Hungary
  • List of Countries
  • For 7 days
  • Water Temperature
  • Satellite Maps
  • Weather Map
  • News
  • Weather Widgets
  • user-avatar
    Login

    Hourly Weather Wunstorf

    Today, 17 December, Sunday

    Time Temperature Precipitation Wind Pressure Humidity
    00:00 -1°C° 0.1 mm 4 mps 755 mmHg 91%
    01:00 -1°C° 0.1 mm 4 mps 756 mmHg 91%
    02:00 -1°C° 0.1 mm 4 mps 756 mmHg 91%
    03:00 -1°C° 0.1 mm 4 mps 756 mmHg 92%
    04:00 -1°C° 0.1 mm 4 mps 757 mmHg 93%
    05:00 -1°C° 0 mm 3 mps 757 mmHg 93%
    06:00 -1°C° 0 mm 3 mps 758 mmHg 93%
    07:00 -1°C° 0 mm 3 mps 758 mmHg 93%
    08:00 -1°C° 0 mm 2 mps 759 mmHg 92%
    09:00 -1°C° 0 mm 2 mps 759 mmHg 90%
    10:00 +1°C° 0 mm 2 mps 760 mmHg 89%
    11:00 +1°C° 0 mm 2 mps 760 mmHg 86%
    12:00 +2°C° 0 mm 2 mps 761 mmHg 83%
    13:00 +3°C° 0 mm 2 mps 761 mmHg 81%
    14:00 +2°C° 0 mm 2 mps 761 mmHg 84%
    15:00 +2°C° 0 mm 2 mps 762 mmHg 88%
    16:00 +1°C° 0 mm 2 mps 762 mmHg 91%
    17:00 +1°C° 0 mm 2 mps 762 mmHg 92%
    18:00 -1°C° 0 mm 2 mps 762 mmHg 93%
    19:00 -1°C° 0 mm 2 mps 763 mmHg 94%
    20:00 -1°C° 0 mm 3 mps 763 mmHg 93%
    21:00 -1°C° 0 mm 3 mps 762 mmHg 93%
    22:00 0°C° 0 mm 3 mps 762 mmHg 93%
    23:00 -1°C° 0 mm 4 mps 762 mmHg 92%

    Tomorrow, 18 December, Monday

    Time Temperature Precipitation Wind Pressure Humidity
    00:00 -1°C° 0 mm 4 mps 762 mmHg 91%
    01:00 0°C° 0 mm 4 mps 761 mmHg 90%
    02:00 0°C° 0.3 mm 4 mps 761 mmHg 87%
    03:00 0°C° 0.3 mm 5 mps 760 mmHg 85%
    04:00 0°C° 0.3 mm 5 mps 759 mmHg 83%
    05:00 0°C° 0.5 mm 5 mps 759 mmHg 85%
    06:00 0°C° 0.5 mm 4 mps 759 mmHg 88%
    07:00 0°C° 0.5 mm 4 mps 759 mmHg 90%
    08:00 +1°C° 0.2 mm 3 mps 759 mmHg 92%
    09:00 +1°C° 0.2 mm 3 mps 760 mmHg 93%
    10:00 +2°C° 0.2 mm 2 mps 760 mmHg 95%
    11:00 +3°C° 0.1 mm 2 mps 760 mmHg 94%
    12:00 +3°C° 0.1 mm 2 mps 761 mmHg 94%
    13:00 +4°C° 0.1 mm 2 mps 761 mmHg 94%
    14:00 +3°C° 0 mm 2 mps 761 mmHg 94%
    15:00 +3°C° 0 mm 2 mps 762 mmHg 95%
    16:00 +3°C° 0 mm 2 mps 762 mmHg 95%
    17:00 +2°C° 0 mm 2 mps 763 mmHg 95%
    18:00 +2°C° 0 mm 2 mps 764 mmHg 94%
    19:00 +2°C° 0 mm 2 mps 764 mmHg 94%
    20:00 +1°C° 0 mm 2 mps 765 mmHg 93%
    21:00 +1°C° 0 mm 2 mps 765 mmHg 93%
    22:00 +1°C° 0 mm 2 mps 766 mmHg 92%
    23:00 +1°C° 0 mm 2 mps 766 mmHg 92%

    Day after tomorrow, 19 December, Tuesday

    Time Temperature Precipitation Wind Pressure Humidity
    00:00 +1°C° 0 mm 2 mps 766 mmHg 92%
    01:00 +1°C° 0 mm 2 mps 767 mmHg 91%
    02:00 +2°C° 0 mm 2 mps 767 mmHg 91%
    03:00 +2°C° 0 mm 2 mps 767 mmHg 91%
    04:00 +2°C° 0 mm 2 mps 768 mmHg 91%
    05:00 +1°C° 0 mm 3 mps 768 mmHg 91%
    06:00 +1°C° 0 mm 3 mps 768 mmHg 92%
    07:00 +1°C° 0 mm 3 mps 768 mmHg 93%
    08:00 +1°C° 0 mm 3 mps 769 mmHg 93%
    09:00 +1°C° 0 mm 3 mps 769 mmHg 94%
    10:00 +2°C° 0 mm 3 mps 770 mmHg 94%
    11:00 +2°C° 0 mm 3 mps 770 mmHg 94%
    12:00 +3°C° 0 mm 3 mps 769 mmHg 94%
    13:00 +3°C° 0 mm 3 mps 769 mmHg 94%
    14:00 +3°C° 0.1 mm 3 mps 769 mmHg 94%
    15:00 +3°C° 0.1 mm 3 mps 769 mmHg 95%
    16:00 +3°C° 0.1 mm 3 mps 769 mmHg 95%
    17:00 +3°C° 0 mm 4 mps 769 mmHg 95%
    18:00 +3°C° 0 mm 4 mps 769 mmHg 95%
    19:00 +3°C° 0 mm 4 mps 769 mmHg 95%
    20:00 +2°C° 0 mm 5 mps 769 mmHg 94%
    21:00 +2°C° 0 mm 5 mps 769 mmHg 93%
    22:00 +2°C° 0 mm 5 mps 769 mmHg 93%
    23:00 +2°C° 0.2 mm 5 mps 769 mmHg 93%

    20 December, Wednesday

    Time Temperature Precipitation Wind Pressure Humidity
    00:00 +2°C° 0.2 mm 5 mps 769 mmHg 94%
    01:00 +2°C° 0.2 mm 5 mps 768 mmHg 94%
    02:00 +3°C° 0 mm 4 mps 768 mmHg 95%
    03:00 +3°C° 0 mm 4 mps 768 mmHg 95%
    04:00 +3°C° 0 mm 4 mps 768 mmHg 95%
    05:00 +3°C° 0.1 mm 4 mps 768 mmHg 96%
    06:00 +3°C° 0.1 mm 4 mps 768 mmHg 96%
    07:00 +4°C° 0.1 mm 3 mps 768 mmHg 96%
    08:00 +4°C° 0.1 mm 3 mps 768 mmHg 96%
    09:00 +4°C° 0.1 mm 3 mps 768 mmHg 97%
    10:00 +5°C° 0.1 mm 3 mps 768 mmHg 97%
    11:00 +5°C° 0 mm 3 mps 768 mmHg 97%
    12:00 +5°C° 0 mm 3 mps 768 mmHg 97%
    13:00 +7°C° 0 mm 3 mps 768 mmHg 97%
    14:00 +7°C° 0 mm 3 mps 768 mmHg 97%
    15:00 +7°C° 0 mm 3 mps 768 mmHg 97%
    16:00 +7°C° 0 mm 3 mps 768 mmHg 97%
    17:00 +7°C° 0.1 mm 3 mps 768 mmHg 96%
    18:00 +6°C° 0.1 mm 4 mps 768 mmHg 96%
    19:00 +7°C° 0.1 mm 4 mps 768 mmHg 96%
    20:00 +7°C° 0 mm 4 mps 768 mmHg 96%
    21:00 +7°C° 0 mm 4 mps 768 mmHg 95%
    22:00 +7°C° 0 mm 5 mps 768 mmHg 95%
    23:00 +7°C° 0.1 mm 5 mps 768 mmHg 94%

    21 December, Thursday

    Time Temperature Precipitation Wind Pressure Humidity
    00:00 +7°C° 0.1 mm 5 mps 768 mmHg 94%
    01:00 +8°C° 0.1 mm 5 mps 767 mmHg 94%
    02:00 +8°C° 0.1 mm 5 mps 767 mmHg 94%
    03:00 +8°C° 0.1 mm 5 mps 767 mmHg 94%
    04:00 +8°C° 0.1 mm 5 mps 767 mmHg 94%
    05:00 +8°C° 0.1 mm 5 mps 766 mmHg 94%
    06:00 +8°C° 0.1 mm 5 mps 766 mmHg 94%
    07:00 +8°C° 0.1 mm 5 mps 766 mmHg 94%
    08:00 +8°C° 0.5 mm 5 mps 766 mmHg 94%
    09:00 +8°C° 0.5 mm 5 mps 766 mmHg 93%
    10:00 +8°C° 0.5 mm 5 mps 766 mmHg 93%
    11:00 +8°C° 0.5 mm 5 mps 766 mmHg 93%
    12:00 +8°C° 0.5 mm 5 mps 765 mmHg 92%
    13:00 +8°C° 0.5 mm 5 mps 765 mmHg 92%
    14:00 +8°C° 0.2 mm 5 mps 765 mmHg 92%
    15:00 +8°C° 0.2 mm 5 mps 764 mmHg 92%
    16:00 +8°C° 0.2 mm 5 mps 764 mmHg 92%
    17:00 +8°C° 0.3 mm 6 mps 764 mmHg 92%
    18:00 +9°C° 0.3 mm 6 mps 763 mmHg 91%
    19:00 +9°C° 0.3 mm 7 mps 763 mmHg 90%
    20:00 +9°C° 0.2 mm 7 mps 763 mmHg 89%
    21:00 +8°C° 0.2 mm 7 mps 762 mmHg 88%
    22:00 +7°C° 0.2 mm 8 mps 762 mmHg 87%
    23:00 +8°C° 1 mm 7 mps 761 mmHg 88%

    22 December, Friday

    Time Temperature Precipitation Wind Pressure Humidity
    00:00 +8°C° 1 mm 7 mps 761 mmHg 89%
    01:00 +8°C° 1 mm 7 mps 760 mmHg 90%
    02:00 +6°C° 1.7 mm 7 mps 761 mmHg 87%
    03:00 +5°C° 1.7 mm 7 mps 761 mmHg 85%
    04:00 +4°C° 1.7 mm 7 mps 762 mmHg 83%
    05:00 +4°C° 0.2 mm 7 mps 763 mmHg 82%
    06:00 +3°C° 0.2 mm 6 mps 764 mmHg 82%
    07:00 +3°C° 0.2 mm 5 mps 766 mmHg 82%
    08:00 +3°C° 0 mm 6 mps 766 mmHg 81%
    09:00 +3°C° 0 mm 6 mps 767 mmHg 80%
    10:00 +3°C° 0 mm 6 mps 768 mmHg 79%
    11:00 +4°C° 0.1 mm 7 mps 768 mmHg 76%
    12:00 +4°C° 0.1 mm 7 mps 768 mmHg 74%
    13:00 +5°C° 0.1 mm 8 mps 769 mmHg 71%
    14:00 +5°C° 0.1 mm 7 mps 769 mmHg 74%
    15:00 +4°C° 0.1 mm 7 mps 769 mmHg 77%
    16:00 +4°C° 0.1 mm 6 mps 769 mmHg 80%
    17:00 +4°C° 0.3 mm 6 mps 769 mmHg 82%
    18:00 +5°C° 0.3 mm 7 mps 769 mmHg 84%
    19:00 +5°C° 0.3 mm 7 mps 769 mmHg 86%
    20:00 +5°C° 0.2 mm 7 mps 769 mmHg 85%
    21:00 +5°C° 0.2 mm 8 mps 769 mmHg 85%
    22:00 +5°C° 0.2 mm 8 mps 769 mmHg 84%
    23:00 +5°C° 0.2 mm 8 mps 769 mmHg 84%
    Show more